Vorticity
6 6 7 7 7 7 7 6 5 4 3 3 4 5 8 10 11 12 12 11 10 8 6 6 8 13 17 17 13 8 7 7 3 -0 2 6 9 8 8 8 6 8 9 10 12 10 6 4 6 8 4 2 7 5 5 7 -3 8 26 15 3 6 9 2 -1 6 0 -2 6 7 6 7 7 9 10 11 14 15 11 7 4 5 5 6 5 7 11 6
6 6 6 6 6 7 7 7 7 7 7 5 4 4 4 5 7 9 12 13 13 11 10 8 6 7 11 16 18 15 9 6 5 2 -1 -1 4 5 7 10 7 6 8 9 9 9 5 4 5 6 5 5 7 1 2 8 -1 9 21 8 4 7 15 13 2 3 1 3 5 1 5 8 8 11 9 10 12 17 18 10 5 6 5 5 6 8 9 7
6 5 5 5 4 4 4 5 5 6 6 6 6 6 4 4 4 5 7 10 13 13 12 11 10 7 6 9 14 19 16 8 6 5 2 1 2 3 5 10 11 8 8 11 13 11 4 3 7 5 5 6 6 2 -1 4 9 13 7 -2 4 5 13 23 13 9 9 6 4 3 7 6 7 14 10 6 6 11 14 8 5 9 6 5 8 7 7 8
6 6 6 5 5 4 3 3 3 4 4 5 6 6 6 5 4 4 4 5 8 10 12 13 13 12 9 7 7 14 19 16 10 6 5 4 1 2 5 8 10 7 8 11 13 12 5 4 8 3 4 5 4 8 1 1 11 8 1 -0 3 1 0 8 12 14 12 6 4 7 10 7 7 13 9 3 8 10 6 5 6 9 8 8 10 7 8 10
6 6 7 7 7 6 6 5 5 5 5 5 6 6 6 7 6 5 4 3 4 5 8 10 12 14 13 11 7 6 13 19 18 11 5 6 4 2 4 8 10 7 7 10 11 11 7 7 9 4 4 6 5 11 4 1 6 -5 -2 6 1 -2 -7 -3 5 10 10 6 5 7 7 6 7 8 7 15 25 15 2 4 7 8 8 10 12 8 9 10
5 5 6 7 7 7 8 7 7 7 7 7 6 7 7 7 7 6 6 4 4 3 4 6 7 10 12 14 13 8 9 13 19 19 10 5 6 3 1 5 10 9 10 10 9 9 9 9 10 6 3 4 8 9 1 2 3 -11 -7 5 2 -5 -8 -0 7 7 8 8 6 5 6 5 4 3 9 23 28 20 12 10 9 8 8 11 13 8 9 11
6 5 6 6 7 7 7 7 7 7 6 7 6 7 7 7 7 7 8 7 5 4 3 4 4 6 7 10 14 13 11 8 11 19 19 11 6 5 1 1 6 11 12 10 8 7 11 10 9 10 3 4 11 4 1 9 8 -5 -8 -1 -1 -6 -7 -2 5 4 1 12 17 4 6 8 1 4 7 9 8 11 14 10 9 9 8 10 11 7 7 11
6 6 6 5 6 5 5 4 4 4 4 5 5 6 6 7 7 7 7 8 8 6 5 4 4 4 4 5 9 12 14 10 9 14 22 21 11 7 4 1 2 8 11 11 9 6 9 10 8 11 6 5 9 3 4 10 1 -9 -7 -7 -13 -9 -2 -3 2 5 -5 10 21 2 7 10 -1 4 6 2 1 5 8 5 10 11 10 9 6 5 4 9
6 7 7 6 5 4 3 2 2 4 4 5 5 5 5 6 7 7 7 7 7 7 7 7 6 5 3 3 3 7 13 11 10 8 12 22 20 11 6 5 2 3 8 11 10 5 8 14 9 7 5 3 5 5 5 4 -4 -13 -10 -9 -16 -11 -0 -3 1 9 -3 5 20 7 7 7 -0 5 5 3 3 5 6 5 11 12 12 9 5 6 6 11
6 6 7 7 6 5 3 2 3 4 5 6 6 6 6 7 7 7 7 7 7 6 7 7 8 7 5 4 2 6 9 7 11 10 6 15 22 17 7 6 6 3 4 7 10 9 9 12 9 4 5 3 4 7 3 5 9 -0 -4 -7 -9 -5 -3 -2 0 5 1 6 28 24 6 0 3 8 5 2 4 7 6 4 10 11 9 9 7 9 7 11
7 7 7 7 7 7 6 5 5 5 5 5 5 6 6 6 7 7 7 7 8 7 7 7 7 8 6 5 5 5 6 5 7 10 11 12 17 21 13 5 5 5 4 3 8 13 11 9 7 6 9 8 5 5 -0 3 9 8 10 2 -5 -4 -3 3 4 4 2 -1 20 29 11 -2 1 8 6 5 9 10 4 2 8 8 8 12 11 10 8 8
8 7 7 7 7 6 7 6 6 5 5 5 5 5 5 6 6 5 6 6 7 8 8 9 8 8 6 7 9 5 5 8 5 5 11 12 13 18 19 14 7 5 6 3 5 10 12 7 4 7 12 9 5 8 4 -2 1 8 12 3 -0 -0 -2 6 5 2 0 -6 8 21 9 -3 -1 9 8 7 14 10 4 4 7 5 6 12 12 11 10 8
9 8 7 7 6 6 5 5 4 4 4 4 5 5 5 6 5 4 5 4 5 5 7 8 10 10 6 6 8 6 7 10 5 2 4 8 12 13 16 20 16 9 6 5 4 6 10 7 5 7 12 10 4 10 11 -1 1 9 5 2 12 9 -4 1 3 1 1 -3 6 16 11 2 3 8 2 4 10 5 4 6 5 6 5 9 13 13 11 9
12 11 9 8 7 6 5 5 4 4 4 5 5 5 5 5 4 5 4 4 4 3 4 4 7 8 6 7 10 8 8 8 6 6 3 2 8 11 12 16 20 17 10 6 4 4 7 7 8 8 9 13 7 4 8 4 2 3 -2 1 18 19 4 3 7 6 5 0 1 14 16 4 1 2 -3 5 8 1 6 7 3 6 5 7 12 14 13 10
11 11 11 11 10 10 9 7 6 5 5 5 4 4 5 4 4 4 4 4 4 4 4 3 4 6 4 7 12 9 6 6 7 7 6 2 3 7 9 11 17 19 16 12 6 4 4 5 8 8 9 15 11 4 5 4 -1 -3 -4 1 19 30 17 6 6 4 4 3 0 9 12 -1 -2 1 -1 9 11 5 12 13 5 5 7 7 10 14 13 12
10 10 10 10 9 10 11 10 9 8 8 7 6 6 5 5 4 4 4 4 5 5 5 5 5 5 3 4 9 9 8 6 5 6 8 7 5 6 8 10 12 15 18 18 12 6 4 3 5 8 10 10 11 13 7 -1 1 0 -4 5 23 28 12 -3 -6 -4 4 6 -1 3 8 4 4 5 3 10 10 4 12 18 8 4 8 9 11 13 11 13
7 8 9 10 9 9 9 9 10 9 9 8 8 7 7 7 6 5 4 5 6 5 5 6 7 7 6 4 4 7 9 8 5 9 12 9 6 7 7 7 9 12 14 16 18 13 7 4 3 6 8 7 9 15 7 7 22 15 -1 7 20 18 12 4 -4 -6 2 5 -1 -1 4 8 12 12 8 10 10 3 10 20 9 1 9 11 12 11 10 11
3 3 5 7 9 9 9 9 9 8 7 7 7 6 6 7 7 5 4 5 3 3 5 6 8 10 8 5 3 4 7 9 8 9 10 7 5 5 6 6 6 10 10 12 18 18 16 11 4 3 5 7 9 8 0 6 23 19 6 6 10 16 17 10 6 3 1 -0 -2 -5 -6 -2 7 15 12 9 10 3 6 19 14 2 6 11 11 11 9 6
2 2 2 3 4 6 7 8 9 9 7 7 8 7 6 6 6 4 4 4 3 3 5 5 6 7 6 6 6 4 3 6 7 6 7 6 6 5 6 6 5 7 8 11 14 16 19 17 11 7 6 7 8 7 3 4 9 11 10 4 5 20 14 -4 3 5 -3 -0 -0 -6 -4 -3 -1 13 20 12 5 2 3 8 13 9 4 7 11 11 9 3
3 3 3 2 2 2 4 3 4 6 5 6 7 7 8 8 8 8 6 5 5 4 4 4 4 6 7 6 9 9 5 5 5 6 6 6 6 7 7 6 5 6 6 9 12 13 14 17 19 16 10 8 7 8 9 10 8 6 11 4 2 19 8 -11 0 1 -6 -2 -5 -5 2 -5 -7 11 21 17 9 4 3 -1 4 11 6 5 10 11 9 5
3 3 3 3 2 2 4 2 1 2 2 3 3 4 6 7 8 8 8 7 8 8 6 5 4 5 6 2 4 9 8 7 7 7 9 8 7 8 7 5 5 6 5 6 7 8 9 16 26 24 14 7 6 9 10 10 6 6 12 6 7 26 17 -0 3 -1 -5 -5 -14 -7 3 -11 -6 15 12 9 11 4 6 8 5 10 8 4 6 8 10 8
4 2 1 2 3 2 3 3 3 2 2 1 1 2 1 3 4 6 8 9 11 11 8 9 8 4 4 4 8 11 9 10 8 6 7 7 7 8 7 6 7 7 5 5 4 4 5 12 24 26 17 10 5 5 9 11 6 6 10 4 14 32 23 12 7 -5 -1 9 5 4 3 -10 -3 15 5 3 13 9 13 16 9 10 11 6 3 6 10 10
7 5 3 3 3 3 3 4 4 3 3 3 2 1 0 1 2 2 5 5 9 12 7 10 12 5 5 8 8 7 6 8 9 8 7 5 6 8 8 7 7 5 4 4 5 4 2 6 15 20 19 16 10 5 7 10 6 7 9 7 15 15 4 7 5 -2 2 8 12 6 -4 -7 -2 8 8 5 9 12 12 12 10 11 11 9 4 5 10 12
9 8 8 7 6 6 5 4 5 4 4 4 3 3 2 2 2 2 2 1 3 5 5 10 9 6 7 4 -0 0 -1 2 8 10 8 6 6 7 9 10 7 6 6 4 4 4 3 4 8 13 16 17 16 10 5 6 8 10 8 9 14 6 -0 5 -2 -2 5 1 5 1 -8 -1 3 3 7 4 6 13 11 10 13 9 7 11 6 5 10 11
7 8 9 9 9 8 8 7 6 6 6 5 6 6 4 3 3 2 2 3 -0 -3 1 7 5 4 7 6 5 6 4 4 6 6 6 7 5 3 5 7 8 9 7 4 3 4 5 7 7 9 13 15 16 14 8 5 7 10 8 11 17 3 -6 4 -3 -9 6 14 14 4 -6 0 6 5 6 8 14 15 6 9 16 10 8 12 7 5 8 8
6 7 7 8 8 8 8 8 8 8 7 6 7 8 7 5 4 3 3 5 1 -2 2 4 3 4 5 6 7 8 8 9 7 4 4 7 8 6 6 7 9 11 8 5 4 5 6 5 5 7 10 12 13 15 13 7 5 10 13 16 20 4 -9 6 5 -11 -1 16 14 8 7 10 13 9 4 6 7 0 -4 5 13 11 10 12 8 6 7 7
5 6 6 6 7 7 8 8 8 9 8 7 7 8 8 7 6 5 5 6 3 3 6 5 4 6 5 4 6 9 10 10 10 8 4 4 6 7 8 9 10 10 8 6 7 11 11 6 4 6 8 9 11 19 21 11 6 12 16 15 16 12 8 12 4 -11 -7 -2 -2 7 12 13 14 5 -2 1 -2 -5 2 8 12 14 13 12 11 8 7 8
5 5 4 5 6 5 7 8 8 8 8 8 8 7 7 7 7 6 6 7 6 4 7 7 5 6 8 7 5 7 9 8 12 13 9 5 4 3 4 8 12 10 6 4 6 8 8 8 7 6 5 6 9 19 23 13 9 15 15 14 13 12 14 11 0 -6 -6 -10 -6 5 2 -2 5 -1 -5 2 2 4 8 4 8 16 13 10 11 10 8 6
5 5 4 4 6 4 4 6 6 6 7 9 9 9 8 6 6 5 5 6 7 6 6 7 6 4 7 9 6 5 6 6 9 10 9 8 9 8 6 6 7 6 3 6 8 4 3 8 8 5 5 7 7 13 16 11 14 19 13 12 14 14 15 10 -2 -7 -5 -4 -0 5 -3 -6 2 2 -0 5 7 6 3 -3 4 16 16 10 9 11 9 6
6 5 5 4 5 6 6 6 5 3 4 4 5 6 7 8 7 7 7 6 6 7 5 6 8 6 2 3 5 5 2 2 4 5 5 6 7 6 5 3 3 3 2 6 11 9 4 3 2 2 4 7 6 8 10 10 16 19 13 12 14 13 13 9 -0 -6 -4 -2 -3 -3 -2 -3 0 5 8 9 5 0 -3 -2 5 14 17 13 10 12 10 5
7 6 7 5 3 5 7 7 6 5 5 4 3 3 3 4 6 8 9 7 6 7 3 3 8 8 3 1 3 4 2 1 2 3 4 5 7 6 4 -0 -1 2 2 2 11 15 9 3 5 6 6 5 4 5 7 9 15 17 13 11 11 14 14 6 1 -1 -6 -4 1 1 -1 -6 -10 -3 8 9 7 5 0 3 7 6 10 12 10 11 9 5
8 6 8 8 3 2 5 8 7 5 6 6 4 5 4 4 6 5 4 3 4 6 4 5 7 6 4 4 3 3 2 2 3 3 3 4 5 7 6 3 2 3 2 -1 5 12 11 9 9 8 6 5 3 5 7 6 9 14 16 11 8 16 10 -6 -3 -0 -12 -6 12 9 -3 -8 -13 -7 4 4 7 9 3 9 12 1 4 11 11 11 10 8
7 6 8 11 8 2 2 7 8 6 5 7 6 5 5 6 7 5 3 5 7 8 7 6 7 7 6 5 5 5 5 5 5 4 3 4 4 3 3 5 6 5 4 -0 -1 3 5 5 8 7 6 7 5 5 6 7 7 10 16 13 8 12 3 -5 8 7 -11 -5 13 11 0 -3 -7 -7 -0 -0 3 8 9 19 11 -8 -0 11 10 13 15 13
8 7 6 9 10 6 1 3 7 5 4 7 7 6 7 7 5 4 5 6 8 7 6 5 6 7 8 6 6 7 7 6 9 8 4 5 6 4 2 2 4 7 9 6 2 2 -0 -1 5 8 8 11 10 8 8 10 9 9 17 14 9 10 6 8 18 11 -3 -2 7 10 2 -3 -7 -8 0 5 3 1 7 16 3 -15 -3 10 9 13 13 12
9 10 9 8 9 9 5 4 6 6 4 5 6 8 9 7 4 5 4 4 5 2 4 8 9 7 9 9 7 9 9 6 11 15 10 6 5 6 6 3 3 5 7 9 9 8 5 2 7 9 7 7 7 8 10 11 7 8 13 11 9 15 14 11 12 12 13 4 3 11 3 -4 -4 -5 4 9 -0 -2 5 11 12 8 9 7 9 13 9 8
8 9 11 11 10 10 9 7 6 7 7 6 5 6 7 5 5 6 5 5 4 2 6 11 10 7 8 9 7 8 9 7 6 8 11 11 9 7 6 4 5 4 5 8 8 9 9 7 9 11 7 5 6 8 7 7 9 9 8 6 10 17 17 14 7 11 18 4 2 17 11 5 8 4 9 7 -5 1 5 2 10 17 12 4 6 11 11 12
4 5 9 14 13 11 11 10 9 9 9 7 6 6 6 5 7 7 7 7 6 4 4 4 5 7 6 7 8 6 7 7 5 4 6 10 11 9 7 5 5 4 5 8 7 8 8 4 3 7 9 9 11 12 9 6 6 6 5 7 11 13 16 20 10 7 13 1 3 24 20 9 11 8 12 12 5 4 -2 -7 3 8 5 7 10 11 12 17
4 1 6 13 14 13 11 10 11 11 10 8 7 8 9 8 10 11 9 8 8 7 5 2 3 7 7 5 6 7 6 5 7 6 4 5 7 9 9 9 8 7 7 9 9 9 11 7 1 1 6 9 9 9 9 7 4 4 6 9 8 5 9 17 12 8 11 2 0 19 25 18 16 14 12 11 14 12 1 -1 8 8 3 4 9 13 15 23
9 1 5 12 13 14 14 11 11 12 11 10 11 13 13 13 13 12 10 8 9 8 8 6 3 3 4 5 6 7 5 4 5 5 3 5 7 6 5 8 10 8 6 9 10 8 10 12 8 5 6 7 5 3 2 3 5 3 3 6 4 2 4 7 6 8 11 3 -6 3 17 21 21 23 19 12 10 11 8 4 1 3 6 5 9 15 13 23
13 1 5 14 11 11 14 13 13 12 11 12 13 12 12 12 11 12 12 11 12 11 10 11 10 7 6 8 11 10 6 4 5 4 4 5 6 5 4 8 17 16 7 7 10 9 11 10 8 7 6 3 0 -0 -0 2 7 5 1 2 2 2 5 2 -0 7 9 4 -2 -5 -1 7 19 29 31 24 12 1 -2 -3 -1 8 11 6 7 7 0 9
12 2 7 16 12 10 15 15 14 13 13 14 15 14 13 13 13 14 12 10 9 9 8 8 9 10 10 10 15 14 6 2 3 3 4 5 6 7 2 1 17 28 24 16 6 1 7 11 10 7 3 3 4 5 8 8 9 8 5 7 7 6 7 2 2 8 5 3 5 -4 -10 -2 12 22 31 32 21 10 6 3 7 13 7 0 5 6 -0 4
10 6 11 18 14 12 16 18 18 17 16 15 15 16 17 15 14 13 12 12 10 9 9 10 8 9 8 5 8 11 4 2 6 4 3 5 9 12 1 -18 -21 -7 9 18 13 8 13 15 13 10 7 10 10 6 8 10 11 12 9 9 10 10 10 6 5 7 2 3 7 -1 -1 11 13 11 24 31 20 17 21 13 3 5 4 1 2 1 2 4
16 15 19 21 19 18 19 21 23 21 17 17 17 17 17 16 15 12 10 10 10 10 11 11 10 10 6 3 7 12 7 7 11 8 5 7 3 2 1 -10 -16 -11 -2 6 7 13 27 26 14 10 9 10 13 10 9 10 9 9 9 8 6 7 11 8 5 7 4 4 8 3 1 8 10 8 17 25 23 24 28 12 -5 -4 3 2 -3 -4 3 6
23 26 29 26 22 26 28 24 22 20 18 19 17 13 14 15 13 11 10 11 12 13 12 9 8 9 7 7 8 8 8 9 9 5 6 8 3 -1 0 2 10 12 4 -4 -15 -17 4 18 14 14 10 2 3 5 3 4 2 -4 -3 2 4 7 10 7 4 6 5 2 5 3 -5 -7 2 8 11 20 25 24 25 17 4 4 5 1 -0 2 4 5
30 33 36 31 27 33 34 25 20 20 21 23 19 17 20 18 13 13 16 17 15 13 11 10 11 11 8 9 10 7 8 10 9 8 7 8 10 9 7 6 11 9 3 9 8 -4 -4 -0 0 11 14 1 -5 -5 -4 0 0 -4 -4 -1 5 7 5 7 8 3 3 5 3 0 -2 -1 4 3 5 18 17 5 11 18 10 7 10 6 2 4 6 6
39 38 39 37 36 39 36 29 27 26 24 24 24 25 26 21 17 19 21 20 18 15 14 12 10 11 11 13 13 9 7 8 9 10 8 8 10 9 6 8 10 6 4 12 18 15 11 5 -3 0 5 5 5 10 16 16 6 3 6 4 4 5 1 3 3 -3 1 6 1 2 4 3 5 4 5 17 17 6 11 16 4 -1 8 9 2 5 14 13
47 45 43 42 43 44 40 34 33 30 25 24 22 22 24 24 22 22 22 22 19 17 18 17 14 14 14 14 14 10 9 11 11 10 9 10 12 11 8 8 9 11 13 13 10 9 10 8 6 6 3 0 1 6 16 21 12 7 11 7 5 8 7 4 -1 -1 7 5 -3 6 11 4 5 7 4 7 17 26 24 8 -4 0 9 8 1 0 8 8
43 41 41 42 44 47 44 36 34 34 28 27 26 22 21 23 23 22 21 23 24 22 21 18 17 20 19 12 12 14 12 13 13 11 12 14 15 14 12 10 9 11 15 13 8 7 6 5 12 18 13 4 1 1 3 11 15 12 9 7 7 7 4 2 5 9 10 4 3 10 11 8 8 7 8 13 21 41 43 12 -11 -3 9 12 11 3 -4 -3
34 31 31 33 37 40 38 33 32 33 29 27 29 26 22 21 21 20 18 19 22 24 28 24 15 19 25 16 9 12 13 14 16 15 14 16 15 12 12 14 12 11 13 9 2 1 2 3 9 14 12 7 4 4 4 5 10 12 8 6 8 8 6 4 8 14 11 4 10 15 11 12 12 4 7 12 6 17 37 26 -1 -9 -4 3 10 10 4 1
26 24 21 24 29 30 30 28 25 26 26 27 28 27 26 26 27 25 20 19 17 14 21 31 23 17 26 24 14 11 13 14 16 16 15 15 12 7 7 15 17 12 10 7 1 1 2 0 2 5 11 14 8 8 14 9 5 13 14 7 4 5 8 6 1 5 10 5 3 9 10 12 15 9 5 5 -5 -7 12 26 17 1 -6 -5 -3 0 4 2
19 15 12 17 22 22 23 23 22 22 20 20 23 23 21 21 25 29 26 22 24 16 11 22 28 22 25 28 22 16 17 18 17 17 17 14 13 8 1 8 16 12 8 5 -1 1 5 4 2 3 10 17 13 11 18 18 17 20 9 -1 5 8 4 4 3 2 9 14 10 7 3 3 11 15 11 8 7 -1 -4 10 22 14 4 5 3 -0 3 6
17 11 8 13 17 18 17 16 20 25 21 14 16 19 19 16 16 23 25 20 25 29 20 15 20 24 25 25 23 19 21 25 22 19 19 15 12 11 4 2 8 7 6 8 1 -0 8 9 3 3 8 13 12 8 11 19 22 17 5 -2 5 10 7 6 8 5 5 11 16 12 7 8 10 11 10 9 13 12 4 8 19 16 7 7 6 -0 -2 4
Height
5908 5907 5906 5906 5905 5904 5904 5903 5902 5902 5901 5900 5900 5899 5898 5898 5897 5897 5896 5895 5895 5895 5895 5894 5894 5893 5893 5894 5894 5894 5895 5896 5896 5896 5896 5896 5896 5896 5897 5897 5897 5898 5899 5900 5902 5903 5903 5903 5904 5905 5906 5907 5907 5907 5908 5909 5909 5910 5910 5911 5912 5911 5911 5911 5912 5912 5912 5912 5911 5910 5911 5912 5913 5913 5914 5914 5914 5914 5915 5915 5915 5916 5916 5916 5916 5916 5916 5917
5907 5906 5906 5905 5904 5904 5903 5902 5902 5901 5900 5900 5899 5898 5898 5897 5897 5896 5895 5895 5894 5894 5893 5893 5893 5893 5892 5892 5892 5893 5893 5894 5895 5894 5895 5895 5895 5895 5895 5896 5896 5897 5897 5899 5901 5902 5902 5902 5903 5904 5905 5906 5907 5907 5908 5909 5909 5910 5911 5911 5912 5911 5910 5911 5912 5912 5912 5913 5912 5911 5911 5911 5911 5913 5913 5914 5914 5914 5915 5915 5914 5915 5915 5915 5915 5915 5916 5916
5906 5905 5905 5904 5903 5903 5902 5902 5901 5900 5900 5899 5898 5897 5897 5896 5896 5895 5895 5894 5894 5893 5892 5892 5892 5892 5891 5891 5890 5891 5892 5892 5893 5893 5894 5894 5894 5894 5894 5895 5896 5896 5896 5897 5898 5900 5900 5900 5901 5902 5904 5906 5906 5907 5908 5908 5909 5910 5910 5910 5910 5910 5911 5911 5912 5912 5912 5913 5912 5911 5911 5911 5911 5912 5912 5912 5914 5914 5914 5914 5914 5915 5915 5915 5915 5915 5916 5916
5905 5904 5904 5903 5902 5902 5901 5900 5900 5899 5899 5898 5897 5897 5896 5895 5895 5894 5894 5894 5893 5892 5892 5892 5891 5891 5891 5890 5889 5889 5889 5890 5891 5891 5892 5893 5892 5892 5893 5894 5894 5895 5895 5896 5896 5898 5898 5899 5901 5902 5903 5905 5905 5907 5908 5908 5909 5910 5909 5909 5909 5909 5911 5911 5911 5911 5912 5913 5912 5911 5911 5911 5911 5912 5911 5911 5913 5913 5913 5914 5914 5915 5916 5915 5915 5914 5915 5916
5903 5903 5902 5902 5901 5901 5900 5899 5899 5898 5898 5897 5896 5896 5895 5894 5894 5893 5893 5893 5892 5892 5891 5891 5891 5890 5890 5890 5889 5888 5888 5888 5889 5890 5891 5891 5891 5891 5891 5892 5893 5893 5894 5895 5895 5896 5896 5898 5900 5901 5902 5904 5905 5906 5907 5907 5908 5909 5908 5908 5907 5908 5909 5910 5911 5911 5912 5912 5911 5911 5911 5910 5910 5911 5911 5911 5913 5913 5912 5913 5914 5914 5915 5915 5915 5914 5915 5916
5902 5902 5901 5901 5900 5899 5899 5898 5898 5897 5896 5896 5895 5895 5894 5894 5893 5892 5892 5892 5891 5891 5891 5890 5890 5890 5889 5889 5888 5887 5886 5886 5887 5888 5888 5889 5889 5890 5890 5891 5892 5892 5893 5894 5895 5895 5896 5897 5899 5900 5902 5903 5905 5906 5906 5906 5907 5909 5908 5908 5907 5907 5908 5909 5910 5911 5912 5912 5911 5911 5911 5909 5908 5910 5911 5912 5913 5913 5912 5913 5913 5914 5914 5915 5915 5914 5914 5915
5901 5900 5900 5899 5899 5898 5898 5897 5897 5896 5895 5895 5894 5894 5893 5893 5892 5892 5891 5891 5891 5890 5890 5890 5890 5889 5889 5888 5887 5887 5886 5885 5886 5887 5887 5887 5888 5888 5889 5890 5890 5891 5892 5893 5893 5894 5895 5896 5898 5900 5901 5903 5905 5905 5906 5906 5908 5909 5909 5908 5907 5906 5907 5909 5910 5911 5912 5912 5911 5911 5910 5908 5908 5909 5910 5912 5913 5912 5912 5912 5912 5913 5913 5913 5914 5914 5913 5914
5899 5899 5898 5898 5897 5897 5896 5896 5896 5895 5894 5894 5893 5892 5892 5891 5891 5891 5890 5890 5890 5889 5889 5889 5889 5888 5888 5887 5887 5886 5886 5884 5884 5885 5886 5886 5887 5887 5887 5888 5889 5890 5891 5891 5892 5893 5893 5895 5897 5899 5900 5903 5905 5904 5905 5906 5908 5908 5907 5906 5905 5906 5907 5908 5910 5911 5912 5912 5911 5911 5909 5908 5908 5909 5910 5911 5912 5911 5910 5910 5911 5912 5912 5912 5913 5913 5913 5913
5897 5897 5896 5896 5896 5895 5895 5894 5894 5893 5893 5892 5892 5891 5891 5890 5890 5889 5889 5889 5889 5888 5888 5888 5888 5888 5887 5887 5886 5886 5885 5884 5883 5884 5884 5885 5886 5886 5886 5887 5888 5889 5889 5890 5890 5891 5892 5895 5896 5898 5900 5901 5902 5903 5904 5905 5906 5905 5905 5904 5903 5904 5906 5907 5909 5910 5912 5912 5911 5910 5910 5909 5909 5909 5909 5910 5911 5910 5909 5909 5910 5910 5911 5911 5912 5912 5913 5913
5895 5894 5894 5894 5894 5893 5893 5893 5892 5892 5891 5891 5890 5890 5889 5889 5888 5888 5888 5887 5888 5887 5887 5887 5887 5886 5886 5886 5885 5885 5885 5884 5883 5883 5883 5883 5884 5885 5885 5885 5886 5887 5888 5889 5889 5890 5892 5894 5895 5896 5897 5897 5899 5901 5902 5904 5905 5904 5903 5903 5902 5903 5904 5906 5908 5909 5911 5911 5911 5911 5910 5909 5908 5908 5909 5909 5910 5909 5909 5910 5910 5909 5910 5911 5911 5912 5912 5913
5893 5892 5892 5892 5891 5891 5891 5890 5890 5890 5889 5889 5888 5888 5888 5887 5887 5886 5886 5886 5886 5886 5886 5886 5885 5885 5885 5884 5884 5884 5884 5883 5883 5882 5882 5882 5883 5883 5883 5883 5884 5885 5886 5887 5888 5889 5890 5891 5892 5892 5893 5895 5897 5899 5902 5903 5903 5903 5902 5902 5901 5901 5902 5903 5906 5908 5909 5910 5911 5912 5911 5909 5907 5907 5909 5910 5910 5910 5910 5910 5909 5909 5910 5910 5911 5911 5912 5912
5891 5890 5890 5889 5889 5889 5888 5888 5888 5888 5887 5887 5886 5886 5886 5885 5885 5885 5884 5884 5884 5884 5884 5884 5884 5884 5883 5883 5883 5883 5883 5882 5882 5881 5881 5881 5881 5882 5882 5882 5882 5883 5885 5886 5887 5888 5888 5889 5888 5889 5892 5895 5896 5898 5900 5901 5901 5900 5900 5900 5900 5899 5900 5901 5904 5907 5907 5907 5909 5911 5911 5910 5907 5906 5908 5910 5911 5912 5911 5910 5909 5909 5909 5910 5910 5910 5911 5912
5889 5888 5888 5887 5887 5886 5886 5886 5885 5885 5885 5884 5884 5884 5883 5883 5883 5883 5883 5883 5883 5883 5883 5883 5883 5883 5881 5881 5881 5881 5881 5882 5881 5880 5879 5880 5880 5880 5880 5881 5881 5882 5883 5884 5885 5885 5886 5886 5886 5888 5891 5892 5894 5896 5897 5897 5897 5897 5897 5898 5897 5898 5899 5901 5903 5905 5904 5906 5908 5909 5909 5909 5906 5905 5907 5909 5911 5912 5911 5909 5909 5909 5909 5910 5910 5910 5911 5912
5887 5886 5885 5885 5884 5884 5884 5883 5883 5883 5882 5882 5882 5881 5881 5881 5881 5881 5882 5881 5881 5881 5881 5882 5882 5881 5879 5879 5880 5879 5880 5880 5880 5879 5878 5878 5878 5879 5879 5880 5880 5880 5881 5882 5882 5883 5884 5884 5885 5887 5888 5890 5893 5895 5894 5894 5894 5895 5895 5896 5896 5896 5898 5900 5903 5904 5903 5904 5906 5907 5908 5909 5905 5904 5906 5907 5909 5912 5911 5909 5909 5909 5909 5909 5910 5910 5910 5911
5884 5884 5883 5882 5882 5882 5882 5881 5881 5880 5880 5879 5879 5878 5878 5879 5879 5879 5879 5879 5879 5879 5880 5880 5880 5880 5877 5877 5878 5878 5877 5878 5878 5878 5878 5877 5877 5877 5878 5878 5878 5878 5878 5879 5880 5881 5882 5882 5883 5884 5886 5888 5890 5891 5892 5892 5892 5893 5894 5895 5895 5896 5896 5899 5902 5903 5904 5904 5905 5906 5908 5909 5905 5903 5906 5907 5908 5911 5911 5910 5909 5909 5909 5909 5909 5910 5910 5910
5881 5881 5881 5880 5880 5879 5879 5879 5879 5878 5877 5877 5877 5876 5876 5877 5877 5876 5876 5876 5876 5876 5877 5878 5878 5878 5876 5875 5876 5876 5875 5875 5875 5876 5877 5876 5876 5875 5876 5876 5877 5877 5876 5877 5878 5879 5879 5880 5882 5883 5885 5886 5887 5889 5890 5889 5890 5892 5894 5895 5896 5896 5895 5897 5900 5903 5904 5904 5904 5906 5907 5908 5905 5903 5905 5907 5908 5910 5910 5910 5909 5909 5909 5909 5909 5909 5910 5910
5879 5879 5878 5878 5877 5877 5877 5876 5876 5875 5874 5874 5874 5873 5873 5875 5874 5873 5873 5873 5874 5873 5874 5876 5876 5876 5875 5874 5873 5873 5873 5873 5873 5874 5874 5875 5875 5875 5875 5875 5875 5875 5875 5875 5875 5876 5877 5878 5880 5881 5882 5884 5885 5886 5886 5886 5888 5891 5893 5895 5896 5896 5895 5896 5900 5902 5904 5904 5904 5905 5906 5907 5905 5903 5904 5906 5907 5909 5910 5910 5909 5909 5909 5909 5909 5909 5910 5910
5876 5875 5875 5875 5874 5874 5874 5873 5873 5873 5871 5871 5872 5870 5870 5872 5872 5871 5871 5871 5871 5871 5871 5873 5874 5874 5873 5872 5871 5870 5871 5871 5871 5871 5872 5872 5872 5873 5873 5873 5872 5872 5873 5873 5873 5874 5875 5876 5878 5879 5880 5881 5882 5883 5884 5886 5889 5891 5893 5895 5897 5897 5895 5896 5899 5901 5902 5902 5903 5904 5905 5906 5905 5903 5904 5905 5906 5908 5909 5909 5909 5909 5909 5909 5910 5909 5910 5910
5872 5872 5871 5871 5871 5871 5870 5870 5870 5870 5868 5868 5868 5868 5868 5869 5869 5868 5869 5869 5868 5868 5869 5870 5871 5871 5871 5870 5869 5868 5869 5869 5869 5869 5870 5870 5870 5870 5870 5871 5870 5870 5871 5871 5872 5872 5873 5874 5875 5877 5878 5879 5880 5882 5884 5887 5889 5890 5892 5894 5896 5896 5895 5896 5898 5900 5900 5901 5902 5903 5904 5905 5905 5903 5903 5904 5905 5906 5908 5908 5909 5909 5909 5909 5909 5909 5910 5910
5869 5868 5868 5867 5867 5867 5867 5867 5866 5866 5865 5864 5865 5865 5865 5865 5865 5865 5866 5866 5866 5865 5866 5867 5869 5869 5868 5866 5866 5866 5866 5866 5867 5867 5867 5868 5868 5868 5868 5868 5868 5869 5870 5870 5870 5871 5870 5871 5872 5875 5877 5878 5879 5881 5883 5886 5886 5888 5889 5891 5893 5894 5894 5896 5898 5899 5899 5900 5901 5902 5904 5904 5904 5903 5903 5903 5903 5904 5906 5907 5908 5908 5909 5909 5909 5909 5909 5909
5865 5865 5864 5863 5862 5862 5863 5863 5862 5862 5862 5862 5862 5861 5861 5861 5860 5861 5862 5863 5863 5862 5863 5863 5865 5867 5865 5862 5863 5864 5864 5865 5866 5865 5865 5865 5865 5866 5866 5866 5867 5867 5868 5868 5868 5869 5868 5869 5871 5873 5875 5876 5878 5879 5881 5883 5883 5885 5886 5888 5891 5892 5893 5894 5894 5896 5898 5899 5900 5902 5903 5903 5903 5903 5903 5902 5902 5904 5906 5906 5907 5907 5908 5908 5908 5908 5908 5909
5861 5860 5860 5859 5858 5857 5858 5859 5858 5858 5858 5858 5858 5858 5857 5857 5857 5857 5859 5861 5860 5858 5860 5860 5861 5864 5863 5859 5860 5860 5861 5864 5864 5863 5863 5863 5863 5864 5864 5864 5865 5866 5866 5866 5866 5866 5867 5868 5870 5871 5872 5873 5875 5876 5877 5880 5881 5882 5884 5886 5888 5890 5893 5892 5891 5893 5896 5897 5899 5901 5902 5903 5903 5903 5902 5901 5902 5903 5905 5906 5906 5906 5907 5908 5908 5907 5907 5908
5856 5856 5855 5855 5854 5852 5852 5854 5854 5854 5854 5855 5855 5854 5853 5853 5853 5854 5855 5858 5859 5855 5855 5857 5857 5860 5860 5857 5855 5856 5859 5862 5861 5861 5860 5861 5861 5862 5862 5862 5863 5863 5863 5863 5864 5865 5866 5868 5868 5868 5869 5870 5872 5874 5875 5876 5878 5879 5881 5883 5887 5890 5891 5891 5891 5893 5894 5896 5897 5899 5901 5902 5902 5901 5900 5901 5902 5902 5903 5904 5905 5905 5906 5907 5907 5907 5907 5907
5850 5850 5850 5850 5849 5848 5847 5848 5849 5848 5849 5850 5850 5850 5849 5848 5849 5850 5850 5853 5856 5854 5851 5852 5854 5857 5856 5853 5852 5854 5857 5859 5858 5859 5858 5858 5859 5859 5860 5860 5860 5860 5861 5861 5862 5862 5864 5866 5866 5866 5867 5868 5869 5871 5871 5873 5875 5877 5879 5881 5885 5889 5890 5891 5892 5893 5893 5893 5895 5898 5900 5899 5899 5899 5899 5900 5900 5900 5900 5901 5903 5904 5906 5906 5906 5907 5907 5907
5844 5844 5845 5845 5845 5843 5841 5842 5843 5843 5844 5845 5845 5845 5844 5844 5844 5846 5846 5847 5852 5853 5848 5847 5850 5853 5851 5850 5851 5852 5852 5855 5855 5854 5855 5855 5855 5856 5857 5857 5858 5858 5859 5859 5859 5861 5863 5863 5863 5863 5864 5865 5866 5868 5869 5870 5873 5875 5877 5880 5883 5887 5889 5890 5891 5891 5890 5890 5893 5896 5896 5895 5896 5897 5897 5898 5899 5898 5898 5899 5900 5902 5904 5905 5906 5906 5906 5906
5838 5837 5838 5839 5839 5839 5836 5835 5837 5837 5838 5839 5840 5840 5839 5839 5839 5840 5841 5840 5846 5850 5846 5844 5845 5848 5848 5847 5848 5848 5848 5852 5852 5849 5852 5853 5853 5854 5854 5854 5856 5857 5856 5856 5856 5859 5861 5860 5860 5861 5862 5863 5863 5865 5867 5869 5870 5873 5876 5879 5882 5884 5886 5888 5889 5889 5888 5889 5892 5893 5893 5893 5893 5893 5895 5896 5897 5897 5897 5897 5898 5900 5902 5904 5905 5905 5905 5906
5831 5831 5831 5832 5832 5833 5831 5829 5830 5831 5832 5833 5835 5834 5833 5834 5834 5835 5835 5834 5839 5844 5843 5841 5841 5842 5844 5844 5844 5845 5846 5848 5846 5847 5850 5849 5850 5850 5850 5851 5854 5854 5854 5852 5854 5858 5858 5857 5857 5859 5859 5860 5861 5862 5865 5867 5867 5871 5876 5878 5879 5881 5882 5885 5887 5887 5887 5887 5889 5889 5890 5890 5889 5890 5893 5894 5894 5895 5895 5896 5896 5898 5900 5902 5904 5905 5905 5905
5825 5824 5824 5825 5825 5826 5826 5824 5823 5824 5826 5827 5828 5828 5828 5829 5829 5830 5830 5827 5832 5838 5838 5838 5837 5837 5839 5840 5841 5841 5842 5843 5843 5844 5845 5844 5845 5847 5847 5849 5851 5851 5850 5849 5852 5855 5854 5854 5856 5857 5856 5857 5859 5862 5864 5864 5865 5870 5875 5875 5877 5879 5880 5882 5884 5885 5886 5884 5882 5884 5886 5886 5885 5887 5891 5891 5891 5892 5893 5895 5895 5895 5897 5900 5902 5903 5904 5904
5818 5817 5817 5817 5817 5818 5819 5819 5818 5817 5818 5820 5821 5822 5822 5823 5824 5825 5823 5821 5826 5832 5832 5833 5833 5833 5834 5835 5836 5837 5837 5839 5839 5839 5838 5839 5842 5843 5845 5847 5845 5846 5846 5846 5850 5852 5851 5853 5854 5853 5854 5856 5858 5860 5861 5861 5862 5869 5872 5872 5874 5876 5877 5880 5880 5882 5883 5879 5877 5880 5882 5881 5881 5883 5887 5886 5886 5889 5893 5894 5894 5894 5895 5897 5899 5901 5902 5903
5810 5809 5809 5809 5810 5810 5809 5811 5813 5811 5810 5813 5814 5815 5816 5817 5818 5818 5815 5816 5822 5826 5825 5827 5828 5828 5828 5829 5831 5832 5833 5834 5833 5833 5833 5836 5838 5839 5841 5842 5840 5842 5842 5842 5847 5849 5849 5849 5849 5850 5853 5855 5856 5856 5857 5858 5860 5866 5868 5868 5871 5872 5874 5876 5876 5878 5877 5871 5871 5877 5878 5878 5877 5878 5881 5881 5884 5888 5892 5893 5892 5892 5893 5895 5897 5899 5901 5902
5802 5801 5800 5800 5802 5803 5801 5802 5805 5806 5805 5805 5806 5808 5809 5809 5810 5809 5808 5813 5819 5818 5817 5819 5820 5821 5822 5823 5825 5826 5827 5828 5828 5828 5829 5832 5834 5834 5836 5837 5837 5838 5839 5840 5845 5847 5846 5845 5847 5849 5851 5853 5853 5853 5854 5855 5857 5861 5863 5864 5867 5868 5871 5871 5871 5872 5867 5862 5868 5874 5876 5875 5872 5873 5878 5879 5883 5887 5889 5890 5891 5891 5892 5892 5895 5897 5899 5900
5793 5792 5791 5791 5792 5794 5794 5793 5795 5798 5799 5798 5798 5799 5801 5801 5801 5801 5804 5811 5812 5809 5809 5811 5811 5814 5816 5816 5818 5820 5821 5823 5823 5823 5825 5827 5828 5829 5832 5834 5835 5835 5836 5839 5843 5843 5843 5843 5845 5846 5848 5849 5850 5850 5852 5852 5853 5855 5858 5860 5861 5863 5865 5864 5864 5863 5858 5859 5866 5872 5874 5869 5865 5870 5877 5878 5881 5884 5886 5888 5890 5890 5890 5890 5892 5894 5896 5898
5784 5783 5782 5781 5781 5783 5785 5786 5786 5788 5791 5792 5791 5791 5792 5792 5793 5795 5800 5804 5803 5800 5801 5803 5804 5807 5808 5810 5813 5815 5816 5817 5818 5818 5820 5822 5822 5824 5827 5829 5830 5830 5833 5836 5837 5837 5838 5840 5841 5842 5844 5845 5846 5848 5849 5850 5850 5851 5853 5854 5855 5857 5857 5855 5857 5858 5857 5860 5865 5870 5869 5863 5861 5867 5873 5876 5879 5881 5883 5886 5887 5888 5888 5888 5889 5891 5893 5895
5775 5774 5773 5771 5771 5772 5775 5776 5777 5778 5780 5782 5782 5782 5782 5783 5786 5789 5793 5795 5794 5793 5793 5795 5797 5798 5800 5804 5807 5810 5811 5812 5813 5813 5814 5815 5816 5818 5821 5824 5825 5826 5829 5830 5831 5833 5834 5836 5838 5839 5841 5843 5844 5846 5848 5849 5849 5849 5850 5852 5851 5852 5852 5853 5855 5856 5857 5859 5863 5866 5863 5857 5859 5864 5868 5873 5876 5877 5880 5882 5884 5885 5885 5886 5887 5888 5890 5892
5765 5764 5763 5761 5761 5763 5764 5764 5767 5769 5769 5771 5772 5772 5774 5776 5779 5781 5782 5784 5785 5786 5787 5788 5790 5791 5794 5797 5800 5803 5805 5806 5807 5807 5807 5808 5810 5813 5817 5820 5821 5822 5824 5825 5827 5830 5830 5832 5837 5838 5838 5840 5840 5843 5845 5845 5845 5846 5848 5847 5845 5847 5851 5854 5855 5856 5858 5858 5859 5860 5857 5854 5858 5862 5865 5870 5872 5873 5876 5878 5880 5881 5882 5883 5883 5885 5887 5889
5755 5754 5752 5750 5752 5754 5753 5753 5756 5757 5758 5760 5760 5762 5766 5769 5770 5771 5772 5774 5776 5779 5781 5781 5782 5784 5787 5789 5791 5794 5795 5798 5801 5801 5801 5802 5803 5807 5811 5814 5817 5818 5819 5821 5824 5825 5825 5829 5835 5834 5833 5835 5837 5839 5841 5840 5841 5842 5843 5841 5842 5848 5852 5852 5852 5854 5856 5854 5853 5855 5854 5854 5857 5859 5862 5866 5867 5870 5872 5874 5876 5878 5879 5880 5880 5882 5884 5886
5744 5743 5740 5739 5741 5742 5742 5743 5744 5746 5747 5748 5749 5753 5757 5758 5759 5761 5762 5764 5765 5768 5771 5774 5775 5776 5778 5779 5782 5783 5783 5787 5792 5793 5795 5797 5795 5799 5805 5808 5812 5813 5814 5817 5818 5820 5820 5823 5829 5829 5828 5831 5834 5836 5836 5835 5837 5837 5837 5840 5844 5847 5848 5847 5847 5849 5850 5847 5848 5851 5851 5852 5853 5855 5858 5862 5864 5866 5868 5871 5873 5875 5876 5877 5878 5880 5881 5883
5731 5731 5727 5727 5728 5728 5730 5732 5732 5734 5734 5736 5739 5742 5744 5746 5749 5750 5751 5752 5754 5756 5760 5763 5765 5768 5769 5770 5771 5772 5773 5777 5781 5783 5787 5789 5789 5794 5799 5801 5805 5808 5810 5812 5812 5813 5815 5816 5821 5824 5825 5828 5830 5829 5828 5829 5831 5833 5836 5839 5841 5841 5841 5842 5842 5841 5842 5842 5844 5847 5847 5848 5849 5851 5855 5859 5861 5863 5866 5868 5870 5872 5874 5875 5876 5877 5878 5880
5717 5717 5712 5713 5713 5713 5717 5719 5719 5721 5721 5723 5729 5730 5731 5734 5736 5738 5739 5740 5742 5745 5747 5750 5754 5757 5759 5761 5762 5763 5764 5767 5770 5773 5778 5781 5784 5789 5793 5794 5797 5801 5804 5805 5805 5808 5810 5809 5813 5818 5821 5823 5822 5819 5820 5824 5828 5830 5832 5833 5834 5835 5837 5838 5837 5837 5838 5838 5840 5843 5843 5844 5846 5849 5852 5855 5858 5860 5862 5865 5867 5868 5870 5872 5874 5876 5876 5877
5702 5703 5697 5696 5699 5700 5703 5704 5703 5705 5708 5712 5715 5715 5717 5721 5722 5725 5727 5728 5731 5733 5735 5738 5742 5746 5749 5752 5756 5755 5754 5757 5761 5763 5769 5775 5779 5784 5787 5787 5790 5793 5796 5798 5799 5802 5803 5801 5804 5812 5815 5814 5812 5811 5815 5822 5825 5825 5825 5826 5828 5831 5832 5834 5833 5834 5835 5835 5837 5839 5839 5840 5844 5847 5849 5852 5854 5856 5858 5862 5864 5865 5867 5869 5871 5873 5874 5875
5685 5687 5680 5678 5684 5687 5687 5686 5687 5690 5693 5697 5699 5700 5704 5707 5709 5712 5713 5714 5717 5719 5722 5725 5728 5732 5736 5741 5746 5747 5745 5747 5751 5754 5759 5766 5772 5777 5777 5777 5781 5785 5787 5788 5790 5793 5795 5795 5798 5805 5806 5805 5806 5811 5815 5818 5820 5821 5822 5823 5825 5828 5829 5829 5829 5830 5832 5832 5833 5835 5835 5837 5843 5845 5847 5849 5851 5853 5856 5859 5862 5863 5864 5866 5868 5870 5872 5873
5667 5670 5663 5660 5668 5673 5669 5668 5671 5673 5676 5681 5683 5686 5690 5692 5694 5697 5698 5700 5702 5705 5709 5711 5713 5717 5720 5726 5734 5736 5735 5739 5742 5745 5750 5756 5762 5764 5762 5764 5770 5774 5775 5778 5782 5786 5790 5791 5791 5794 5798 5800 5804 5808 5810 5812 5814 5816 5817 5820 5823 5824 5824 5825 5826 5828 5830 5830 5830 5832 5829 5832 5840 5843 5844 5846 5848 5850 5854 5857 5859 5860 5862 5864 5865 5867 5868 5870
5649 5651 5646 5644 5651 5654 5651 5652 5653 5654 5659 5664 5665 5669 5674 5675 5677 5679 5682 5685 5688 5692 5696 5696 5698 5702 5704 5712 5720 5721 5725 5731 5732 5734 5740 5746 5750 5751 5751 5757 5763 5765 5766 5768 5772 5778 5781 5781 5781 5785 5791 5795 5799 5802 5803 5805 5807 5806 5808 5814 5817 5818 5820 5823 5825 5827 5828 5826 5828 5829 5823 5825 5837 5842 5841 5843 5845 5847 5850 5853 5855 5857 5858 5860 5862 5864 5865 5866
5630 5632 5628 5627 5633 5635 5633 5635 5635 5636 5642 5646 5646 5651 5657 5658 5658 5661 5666 5670 5673 5677 5679 5680 5685 5688 5690 5699 5706 5707 5713 5720 5721 5725 5731 5736 5740 5742 5744 5751 5755 5756 5756 5756 5758 5763 5767 5770 5773 5777 5781 5785 5788 5789 5790 5793 5795 5797 5801 5808 5812 5814 5817 5819 5820 5822 5821 5821 5824 5824 5817 5820 5834 5840 5839 5840 5842 5844 5846 5848 5851 5853 5854 5856 5858 5860 5862 5863
5612 5614 5611 5609 5615 5618 5615 5615 5618 5621 5625 5628 5629 5634 5639 5639 5641 5646 5651 5655 5657 5660 5662 5667 5672 5673 5678 5686 5691 5692 5700 5708 5711 5714 5719 5725 5730 5734 5737 5741 5744 5745 5747 5748 5749 5752 5755 5759 5764 5766 5769 5772 5775 5778 5781 5785 5789 5793 5798 5802 5806 5810 5812 5812 5815 5814 5812 5815 5820 5818 5815 5819 5830 5836 5836 5837 5838 5840 5843 5844 5846 5849 5850 5852 5854 5857 5859 5860
5593 5595 5596 5594 5596 5601 5600 5598 5602 5607 5609 5611 5615 5620 5622 5623 5627 5633 5637 5639 5642 5644 5647 5653 5656 5659 5666 5672 5674 5678 5686 5695 5699 5702 5708 5715 5720 5725 5729 5732 5735 5737 5740 5742 5743 5746 5749 5752 5755 5758 5761 5765 5772 5779 5784 5786 5786 5788 5792 5796 5799 5804 5808 5809 5808 5806 5807 5813 5815 5815 5816 5819 5824 5830 5833 5835 5836 5837 5839 5841 5843 5845 5846 5848 5851 5853 5855 5857
5579 5580 5581 5582 5582 5585 5586 5585 5589 5593 5594 5596 5601 5605 5608 5610 5615 5620 5624 5626 5630 5632 5635 5641 5644 5646 5652 5657 5660 5666 5674 5681 5686 5690 5697 5704 5709 5714 5719 5722 5726 5730 5734 5735 5736 5740 5743 5746 5750 5753 5755 5761 5769 5776 5781 5782 5782 5783 5787 5791 5794 5798 5802 5803 5802 5801 5806 5810 5810 5813 5817 5817 5819 5825 5829 5832 5833 5835 5837 5839 5840 5842 5843 5844 5846 5848 5851 5853
5569 5569 5570 5571 5573 5574 5575 5575 5577 5581 5582 5584 5588 5592 5595 5599 5602 5607 5610 5613 5617 5621 5624 5628 5632 5633 5638 5643 5649 5655 5662 5668 5674 5679 5686 5694 5699 5704 5709 5714 5718 5722 5726 5727 5728 5731 5734 5739 5745 5745 5747 5753 5761 5767 5773 5777 5778 5779 5782 5785 5788 5791 5794 5795 5797 5801 5804 5804 5805 5812 5816 5815 5817 5822 5825 5828 5830 5832 5835 5837 5838 5839 5840 5840 5842 5844 5847 5849
5563 5563 5563 5564 5566 5567 5567 5567 5568 5571 5574 5575 5578 5582 5585 5588 5590 5594 5598 5602 5606 5610 5611 5614 5617 5619 5622 5630 5636 5642 5650 5657 5662 5669 5676 5682 5689 5696 5701 5706 5710 5714 5717 5719 5720 5722 5726 5732 5736 5736 5738 5744 5751 5757 5765 5769 5772 5774 5776 5779 5782 5785 5787 5789 5793 5798 5800 5800 5802 5808 5810 5811 5815 5819 5821 5825 5827 5828 5830 5833 5834 5836 5837 5838 5839 5841 5843 5845
5559 5560 5560 5560 5561 5562 5562 5563 5563 5565 5568 5570 5571 5574 5577 5579 5581 5584 5588 5591 5596 5600 5600 5600 5604 5606 5609 5616 5622 5629 5637 5642 5648 5658 5665 5671 5679 5687 5692 5697 5703 5706 5709 5711 5712 5714 5720 5725 5727 5728 5731 5736 5743 5749 5756 5761 5765 5767 5770 5773 5776 5779 5782 5784 5786 5790 5793 5796 5799 5802 5803 5806 5811 5815 5818 5821 5822 5824 5826 5827 5829 5831 5833 5835 5836 5838 5840 5842
5558 5557 5557 5558 5559 5559 5559 5560 5560 5562 5565 5565 5566 5568 5570 5572 5575 5577 5580 5583 5586 5591 5592 5591 5593 5596 5599 5605 5611 5617 5622 5626 5634 5645 5653 5660 5669 5677 5682 5689 5695 5698 5701 5704 5705 5707 5712 5718 5721 5722 5724 5730 5737 5742 5746 5753 5759 5760 5762 5765 5768 5771 5775 5778 5780 5783 5787 5791 5795 5796 5797 5801 5808 5813 5814 5816 5818 5819 5821 5823 5825 5827 5828 5830 5832 5835 5837 5839
5557 5556 5556 5556 5557 5557 5557 5558 5559 5560 5562 5561 5562 5565 5566 5568 5570 5571 5574 5579 5580 5582 5585 5586 5586 5586 5589 5596 5603 5606 5608 5612 5621 5632 5640 5648 5657 5665 5672 5680 5685 5688 5692 5696 5698 5700 5705 5712 5716 5716 5718 5725 5731 5735 5741 5748 5749 5748 5751 5757 5762 5766 5770 5773 5777 5780 5783 5786 5789 5790 5793 5799 5806 5808 5809 5810 5813 5815 5817 5820 5822 5822 5824 5825 5828 5831 5833 5835